Regional Weather Roundup
Issued by NWS

Home | Current Version | Previous Version | Graphics & Text | Print | Product List | Glossary On
Versions: 1 2 3 4 5 6 7 8 9 10 11 12 13 14 15 16 17 18 19 20 21 22 23 24 25 26 27 28
000
ASUS45 KPSR 192310
RWRAZ

ARIZONA HOURLY REGIONAL WEATHER ROUNDUP
NATIONAL WEATHER SERVICE PHOENIX AZ
400 PM MST TUE SEP 19 2017

NOTE: FAIR INDICATES FEW OR NO CLOUDS BELOW 12,000 FEET WITH NO
SIGNIFICANT WEATHER AND/OR OBSTRUCTIONS TO VISIBILITY.

AZZ001>003-036-200000-
NORTHWEST ARIZONA

CITY           SKY/WX    TMP DP  RH WIND       PRES   REMARKS
BULLHEAD CITY  SUNNY     97  30   9 S22G28    29.66F
KINGMAN        SUNNY     85  38  18 S17G28    29.85F
$$

AZZ004>008-015-016-018-200000-
NORTH CENTRAL ARIZONA

CITY           SKY/WX    TMP DP  RH WIND       PRES   REMARKS
GRAND CANYON   SUNNY     74  23  15 SW22G39   30.02S
WILLIAMS       SUNNY     72  18  13 SW22G30   30.05S
PRESCOTT       SUNNY     77  29  17 S17G31    29.98F
FLAGSTAFF      SUNNY     69  22  16 SW21G30   30.08S
PAYSON           N/A     79  32  18 SW12G18   30.02F
PAGE           SUNNY     87  31  13 SW8       29.77F
$$

AZZ009>014-017-200000-
NORTHEAST ARIZONA

CITY           SKY/WX    TMP DP  RH WIND       PRES   REMARKS
WINSLOW        SUNNY     84  19   9 SW25G33   29.92F
SAINT JOHNS    SUNNY     81  30  15 W26G37    29.97F
WINDOW ROCK    SUNNY     77  17  10 SW23G33   30.01F
SHOW LOW       SUNNY     75  34  22 SW26G36   30.06F
$$

AZZ540-542>544-546-548-200000-
GREATER PHOENIX AREA

CITY           SKY/WX    TMP DP  RH WIND       PRES   REMARKS
PHOENIX        MOSUNNY   99  34  10 W10       29.72F
BUCKEYE        SUNNY     97  37  12 S15       29.73F
GLENDALE       MOSUNNY   99  37  12 SW14G22   29.74F
LUKE AFB       SUNNY     97  40  13 S12G24    29.73F
DEER VALLEY    SUNNY     95  41  15 SW12      29.75F
SCOTTSDALE     SUNNY     96  38  13 W9        29.77F
MESA-FALCON    MOSUNNY   97  39  13 S9G16     29.76F
MESA-GATEWAY   SUNNY     97  36  11 W9G16     29.76F
CHANDLER       SUNNY     99  30   9 W12       29.74
$$

AZZ539-553-200000-
SOUTHWEST MARICOPA COUNTY AND PINAL COUNTY

CITY           SKY/WX    TMP DP  RH WIND       PRES   REMARKS
CASA GRANDE    NOT AVBL
GILA BEND      MOSUNNY   98  40  13 SW20      29.71F
$$

AZZ503-504-507>509-200000-
SOUTHEAST ARIZONA

CITY           SKY/WX    TMP DP  RH WIND       PRES   REMARKS
TUCSON         MOSUNNY   94  51  23 SW16G25   29.87F
DAVIS-MONTHAN  MOSUNNY   95  50  21 W15G25    29.86F
RYAN FIELD     SUNNY     97  48  19 SW24G31   29.85F
NOGALES        MOSUNNY   88  54  31 SW15G28   29.97F
SIERRA VISTA   SUNNY     86  49  28 W15G24    30.03F
DOUGLAS        MOSUNNY   90  48  23 W21G29    29.96F
SAFFORD        SUNNY     94  48  20 NW22G32   29.84F
$$

AZZ532-200000-
SOUTHWEST ARIZONA

CITY           SKY/WX    TMP DP  RH WIND       PRES   REMARKS
YUMA           SUNNY     98  34  10 W9        29.68F
$$

CAZ041-043-047-048-061-525>527-560>570-200000-
SOUTHERN CALIFORNIA

CITY           SKY/WX    TMP DP  RH WIND       PRES   REMARKS
DOWNTOWN L.A.  CLOUDY    76  60  57 VRB3      29.86F
L.A. AIRPORT   MOSUNNY   74  62  66 SW14      29.87F
SAN DIEGO      MOSUNNY   72  60  66 SW10      29.89F
BURBANK        CLOUDY    74  57  55 S10       29.86F
ONTARIO        MOSUNNY   77  55  46 SW10      29.87F
RIVERSIDE      SUNNY     78  57  48 W12G17    29.86F
PALM SPRINGS   SUNNY     92  50  23 NW12G24   29.71F
EL CENTRO NAS  MOSUNNY   99  36  11 W21G30    29.68F
IMPERIAL       MOSUNNY   99  43  14 SW14      29.65F
BLYTHE         SUNNY     98  37  12 SW17      29.67F
NEEDLES        SUNNY     98  31   9 S16G26    29.69F
$$

NVZ020-UTZ003-200000-
SOUTHERN NEVADA-UTAH

CITY           SKY/WX    TMP DP  RH WIND       PRES   REMARKS
LAS VEGAS      PTSUNNY   90  41  18 SW13G25   29.72F
SALT LAKE CITY PTSUNNY   62  35  36 N10       29.91F
$$

NMZ009-TXZ055-200000-
NEW MEXICO-WEST TEXAS

CITY           SKY/WX    TMP DP  RH WIND       PRES   REMARKS
ALBUQUERQUE    MOSUNNY   86  14   7 W17G28    29.91F
EL PASO        MOSUNNY   92  47  21 W23G29    29.88F
$$


........................KEY........................
SKY/WX - SKY CONDITION/WEATHER
TMP    - TEMPERATURE IN FAHRENHEIT
DP     - DEW POINT IN FAHRENHEIT
RH     - RELATIVE HUMIDITY IN PERCENT
WIND   - DIRECTION AND SPEED IN MILES PER HOUR (MPH)
VRB    - VARIABLE WIND DIRECTION
PRES   - MEAN SEA LEVEL PRESSURE IN INCHES OF MERCURY
         F - FALLING PRESSURE   R - RISING PRESSURE
         S - STEADY PRESSURE
VSB    - VISIBILITY IN MILES
HX     - HEAT INDEX IN FAHRENHEIT
WCI    - WIND CHILL INDEX IN FAHRENHEIT
TC     - TEMPERATURE IN CELSIUS WHICH IS ALSO KNOWN AS
         TEMPERATURE IN CENTIGRADE
AFB    - AIR FORCE BASE
         LUKE AFB IS LUKE AIR FORCE BASE
         DAVIS-MONTHAN IS DAVIS-MONTHAN AIR FORCE BASE
NAS    - NAVAL AIR STATION
         EL CENTRO NAS IS EL CENTRO NAVAL AIR STATION
N/A    - NOT AVAILABLE





USA.gov is the U.S. government's official web portal to all federal, state and local government web resources and services.